Juliana Airport, Sint Maarten

5:58 AM AST on July 22, 2017 (GMT -0400)
Princess Juliana International

Weather History for TNCM - November, 2012

Change the Weather History Date:

Tuesday, November 13, 2012

  Actual Average Record
Temperature  
Mean Temperature 81 °F -  
Max Temperature 85 °F 83 °F 89 °F (2001)
Min Temperature 77 °F 74 °F 71 °F (2003)
Cooling Degree Days 16    
Growing Degree Days 31 (Base 50)    
Moisture  
Dew Point 74 °F    
Average Humidity 75    
Maximum Humidity 89    
Minimum Humidity 59    
Precipitation  
Precipitation 0.08 in 0.15 in - ()
Sea Level Pressure  
Sea Level Pressure 29.91 in    
Wind  
Wind Speed 6 mph ()    
Max Wind Speed 14 mph    
Max Gust Speed -    
Visibility 6.6 miles    
Events Rain    
Averages and records for this station are not official NWS values.
T = Trace of Precipitation, MM = Missing Value Source: Averaged Metar Reports

Daily Weather History Graph

Daily Weather History Graph

Search for Another Location

Airport or City:

Trip Planner

Search our weather history database for the weather conditions in past years. The results will help you decide how hot, cold, wet, or windy it might be!

Date:

Astronomy

Nov. 13, 2012 Rise Set
Actual Time 6:17 AM AST 5:35 PM AST
Civil Twilight 5:54 AM AST 5:58 PM AST
Nautical Twilight 5:28 AM AST 6:25 PM AST
Astronomical Twilight 5:02 AM AST 6:51 PM AST
Moon 5:49 AM AST (11/13) 5:28 PM AST (11/13)
Length of Visible Light 12h 04m
Length of Day
11h 18m
Waning Crescent, 0% of the Moon is Illuminated
Nov 13
Waning Crescent
Nov 13
New
Nov 20
First Quarter
Nov 28
Full
Dec 6
Last Quarter

Hourly Weather History & Observations

Time (AST) Temp. Heat Index Dew Point Humidity Pressure Visibility Wind Dir Wind Speed Gust Speed Precip Events Conditions
12:00 AM 80.6 °F 85.4 °F 73.4 °F 79% 29.92 in 6.2 mi SE 5.8 mph - N/A Rain Light Rain Showers
1:00 AM 80.6 °F 85.4 °F 73.4 °F 79% 29.92 in 6.2 mi East 6.9 mph - N/A   Scattered Clouds
2:00 AM 80 °F - 72 °F 72% 29.90 in 12 mi East 6.9 mph - -   Partly Cloudy
2:00 AM 80.6 °F 85.4 °F 73.4 °F 79% 29.89 in 6.2 mi East 6.9 mph - N/A   Scattered Clouds
3:00 AM 80.6 °F 85.4 °F 73.4 °F 79% 29.89 in 6.2 mi East 3.5 mph - N/A   Partly Cloudy
4:00 AM 80.6 °F 85.4 °F 73.4 °F 79% 29.89 in 6.2 mi Variable 1.2 mph - N/A   Scattered Clouds
5:00 AM 78 °F - 74 °F 86% 29.89 in 6 mi 3.5 mph - - Rain Light Rain Showers
5:00 AM 78.8 °F - 75.2 °F 89% 29.89 in 6.2 mi Variable 3.5 mph - N/A Rain Light Rain Showers
6:00 AM 78.8 °F - 73.4 °F 83% 29.89 in 6.2 mi ENE 3.5 mph - N/A   Scattered Clouds
7:00 AM 80.6 °F 85.4 °F 73.4 °F 79% 29.92 in 6.2 mi WNW 2.3 mph - N/A   Scattered Clouds
8:00 AM 83 °F - 74 °F 67% 29.95 in 12 mi 3.5 mph - -   Scattered Clouds
8:00 AM 82.4 °F 88.2 °F 73.4 °F 74% 29.95 in 6.2 mi Variable 3.5 mph - N/A Rain Light Rain Showers
9:00 AM 84.2 °F 92.3 °F 75.2 °F 74% 29.95 in 6.2 mi Variable 3.5 mph - N/A   Scattered Clouds
10:00 AM 82.4 °F 88.2 °F 73.4 °F 74% 29.95 in 6.2 mi East 9.2 mph - N/A   Scattered Clouds
11:00 AM 85 °F - 73 °F 59% 29.96 in 28 mi East 11.5 mph - -   Partly Cloudy
11:00 AM 84.2 °F 90.9 °F 73.4 °F 70% 29.95 in 6.2 mi East 11.5 mph - N/A   Scattered Clouds
12:00 PM 84.2 °F 92.3 °F 75.2 °F 74% 29.92 in 6.2 mi East 13.8 mph - N/A   Scattered Clouds
12:09 PM 84.2 °F 92.3 °F 75.2 °F 74% 29.92 in 6.2 mi East 9.2 mph - N/A Rain Light Rain Showers
1:00 PM 82.4 °F 88.2 °F 73.4 °F 74% 29.89 in - East 13.8 mph - N/A Rain Light Rain Showers
1:14 PM 84.2 °F 90.9 °F 73.4 °F 70% 29.89 in 6.2 mi ESE 10.4 mph - N/A   Partly Cloudy
2:00 PM 83 °F - 74 °F 69% 29.88 in 25 mi East 13.8 mph - -   Partly Cloudy
2:00 PM 84.2 °F 92.3 °F 75.2 °F 74% 29.86 in 6.2 mi East 13.8 mph - N/A   Scattered Clouds
3:00 PM 84.2 °F 92.3 °F 75.2 °F 74% 29.86 in 6.2 mi East 10.4 mph - N/A   Mostly Cloudy
5:00 PM 83 °F - 74 °F 66% 29.87 in 40 mi ESE 9.2 mph - -   Scattered Clouds
5:00 PM 82.4 °F 88.2 °F 73.4 °F 74% 29.86 in 6.2 mi ESE 9.2 mph - N/A   Partly Cloudy
6:00 PM 82.4 °F 88.2 °F 73.4 °F 74% 29.86 in 6.2 mi ESE 9.2 mph - N/A   Scattered Clouds
7:00 PM 82.4 °F 88.2 °F 73.4 °F 74% 29.89 in 6.2 mi East 10.4 mph - N/A   Partly Cloudy
8:00 PM 82 °F - 74 °F 72% 29.91 in 34 mi ESE 9.2 mph - -   Scattered Clouds
8:00 PM 82.4 °F 89.5 °F 75.2 °F 79% 29.89 in 6.2 mi ESE 9.2 mph - N/A   Partly Cloudy
9:00 PM 82.4 °F 89.5 °F 75.2 °F 79% 29.92 in 6.2 mi ESE 10.4 mph - N/A   Partly Cloudy
10:00 PM 82.4 °F 88.2 °F 73.4 °F 74% 29.92 in 6.2 mi East 9.2 mph - N/A   Scattered Clouds
11:00 PM 82 °F - 73 °F 68% 29.94 in 28 mi ESE 8.1 mph - -   Scattered Clouds
11:00 PM 82.4 °F 88.2 °F 73.4 °F 74% 29.92 in 6.2 mi ESE 8.1 mph - N/A   Partly Cloudy